[[{"header":{"parameterUnit":"m.s-1","parameterCategory":2,"la1":30.2991,"la2":30.254,"lo1":-89.0895,"lo2":-89.0444,"dy":0.0017,"dx":0.0017,"nx":28,"ny":28,"refTime":"2024-12-10T09:00:00:Z","depth":"0","parameterNumber":2,"parameterNumberName":"U-component_of_CURRENTS"},"data":[0,0,0,0,0,0,0,0,0,0,0,0,0,0,0,0,0,0,0,0,0,0,0,0,0,0,0,0,0,0,0,0,0,0,0,0,0,0,0,0,0,0,0,0,0,0,0,0,0,0,0,0,0,0,0,0,0,0,0.0866,0.0866,0,0.0838,0.0838,0.0838,0.0825,0.0825,0.0825,0.0825,0.0844,0.0844,0.0845,0,0,0,0,0,0,0,0,0,0,0,0,0,0.0997,0.0994,0.0866,0.0866,0.0866,0.0838,0.0838,0.0838,0.0825,0.0825,0.0825,0.0825,0.0844,0.0844,0.0845,0,0,0,0,0,0,0,0,0,0,0,0,0,0.0951,0.0993,0.0866,0.0856,0.0855,0.0839,0.0838,0.0838,0.0825,0.0825,0.0825,0.0825,0.0843,0.0844,0.0845,0.0847,0,0,0.0847,0.0847,0,0,0,0,0,0,0,0,0.0954,0.0947,0.0858,0.0857,0.0856,0.0835,0.0891,0.0843,0.0825,0.0837,0.0825,0.0826,0.0845,0.0846,0.084,0.0848,0.0849,0.0847,0.0847,0.0847,0.0848,0,0,0,0,0,0,0,0.0957,0.0948,0.0855,0.0858,0.0856,0.0883,0.0876,0.0882,0.0842,0.0836,0.0835,0.0832,0.0845,0.0839,0.084,0.0849,0.0847,0.0847,0.0848,0.0848,0.0864,0.0864,0,0,0,0,0,0,0.0955,0.095,0.0856,0.0854,0.0906,0.0881,0.0873,0.0842,0.0841,0.084,0.0832,0.0831,0.0838,0.0839,0.0841,0.0881,0.0847,0.0848,0.0848,0.0864,0.0864,0.0864,0,0,0,0,0,0,0.0958,0.0946,0.0857,0.0904,0.0895,0.0878,0.0844,0.0841,0.0838,0.0837,0.0837,0.0832,0.0838,0.084,0.0841,0.0881,0.0848,0.0849,0.0864,0.0864,0.0864,0.0939,0,0,0,0,0,0,0.0961,0.0946,0.0936,0.0903,0.0892,0.0854,0.0844,0.0841,0.0836,0.0835,0.0837,0.0839,0.0838,0.084,0.0842,0.0881,0.085,0.0864,0.0864,0.0864,0.0937,0.0942,0.0946,0,0,0,0,0,0.0965,0.0967,0.0935,0.0924,0.0872,0.0855,0.0852,0.0842,0.0836,0.0839,0.0831,0.0839,0.0842,0.084,0.0843,0.0883,0.0864,0.0864,0.0864,0.0935,0.0941,0.0946,0,0,0,0,0,0,0.1059,0.0964,0.0929,0.091,0.088,0.0853,0.0867,0.0844,0.0839,0.0842,0.0836,0.0837,0.0849,0.0846,0.0844,0.0882,0.0856,0.0856,0.0909,0.0915,0.0919,0.1051,0.085,0,0,0,0,0,0.106,0.1021,0.0949,0.0947,0.0924,0.0889,0.0885,0.0865,0.0851,0.0849,0.0844,0.0843,0.085,0.0865,0.0857,0.0886,0.0946,0.091,0.0915,0.0919,0.1024,0.1115,0.1141,0.0864,0.0864,0.0864,0,0,0.1106,0.1049,0.1034,0.0962,0.094,0.0949,0.0888,0.088,0.091,0.0854,0.0894,0.0852,0.0852,0.0876,0.0884,0.0885,0.1014,0.0919,0.0924,0.1029,0.1118,0.1147,0.1171,0.0864,0.0864,0.0864,0,0,0.1196,0.1114,0.1112,0.108,0.1028,0.1001,0.0996,0.0948,0.0943,0.0946,0.0919,0.0921,0.0908,0.0942,0.0955,0.0988,0.102,0.0947,0.1108,0.1191,0.1217,0.1241,0.1303,0.1332,0.0969,0.097,0.097,0,0.1267,0.1233,0.1124,0.1127,0.1136,0.1031,0.1072,0.105,0.1016,0.1039,0.0973,0.1,0.0972,0.107,0.1075,0.1014,0.1053,0.1085,0.1206,0.1231,0.1255,0.1313,0.1344,0.0973,0.0973,0.0972,0.0972,0,0.1337,0.1331,0.1339,0.1296,0.1292,0.13,0.1247,0.124,0.12,0.1185,0.1222,0.1172,0.1214,0.117,0.1144,0.1286,0.1252,0.1185,0.1209,0.1289,0.1341,0.1373,0.0979,0.0977,0.0976,0.0975,0,0,0.144,0.1398,0.1402,0.1405,0.1374,0.1363,0.1428,0.1444,0.1475,0.1438,0.1518,0.1515,0.1472,0.1489,0.1428,0.1509,0.1653,0.1439,0.1442,0.1536,0.1839,0.172,0.1742,0.16,0.1607,0.1613,0.1792,0,0.1536,0.1573,0.1546,0.1613,0.1617,0.1581,0.1636,0.164,0.1618,0.1645,0.1641,0.1651,0.1594,0.1576,0.167,0.1628,0.175,0.1613,0.1724,0.1729,0.1643,0.1781,0.1662,0.1806,0.1823,0.1828,0.1832,0,0.1588,0.1605,0.1685,0.1715,0.1719,0.1757,0.1804,0.1836,0.1871,0.1857,0.1923,0.1872,0.1986,0.1881,0.2035,0.1942,0.1962,0.1945,0.1948,0.1869,0.1673,0.1735,0.1863,0.1775,0.1881,0.1877,0.1873,0,0.1623,0.169,0.1753,0.1763,0.1793,0.1846,0.1868,0.1904,0.1914,0.1989,0.1988,0.2111,0.2108,0.2213,0.2176,0.2122,0.2316,0.2211,0.2161,0.2149,0.2099,0.2072,0.2205,0.2419,0.2419,0.2418,0.2418,0,0.1679,0.1719,0.1761,0.1776,0.1842,0.1867,0.1928,0.196,0.2009,0.2028,0.2085,0.2114,0.2192,0.2259,0.2284,0.2322,0.2416,0.2284,0.2228,0.2106,0.2079,0.2036,0.1987,0.2425,0.2423,0.2422,0.2421,0,0.1668,0.1708,0.1754,0.182,0.1839,0.1868,0.1914,0.1942,0.1996,0.2033,0.2057,0.2139,0.2219,0.2287,0.2405,0.24,0.2388,0.2462,0.23,0.2225,0.206,0.2017,0.2116,0.2068,0.2473,0.2472,0.2471,0,0.1654,0.168,0.1746,0.1767,0.1793,0.1837,0.186,0.1919,0.1942,0.2023,0.2038,0.2131,0.216,0.2298,0.2332,0.2419,0.2349,0.2357,0.2258,0.2128,0.2041,0.1949,0.1896,0.2203,0.22,0.2197,0.2195,0,0.1629,0.1653,0.1687,0.1727,0.1758,0.1784,0.1823,0.183,0.1898,0.1924,0.1963,0.1999,0.2106,0.212,0.2219,0.2252,0.221,0.2302,0.2243,0.1957,0.1804,0.1698,0.1982,0.2172,0.2175,0.2176,0.2177,0.2178,0.1595,0.1608,0.1651,0.1681,0.1709,0.1717,0.171,0.1746,0.1756,0.1775,0.1856,0.1868,0.1933,0.2028,0.2061,0.2007,0.2032,0.195,0.1946,0.1894,0.1757,0.1982,0.2034,0.2036,0.2037,0.2038,0.2039,0,0.1552,0.1578,0.1604,0.1632,0.1626,0.1663,0.1672,0.1646,0.1623,0.1665,0.1678,0.1679,0.1689,0.1745,0.1728,0.167,0.163,0.1631,0.1513,0.1508,0.1788,0.1679,0.1564,0.1564,0.1564,0.1564,0.1564,0.1564,0.1538,0.1547,0.1563,0.1542,0.1551,0.1515,0.15,0.1468,0.1472,0.1418,0.1397,0.1427,0.1471,0.1482,0.1419,0.1395,0.1311,0.1235,0.1276,0.1472,0.1501,0.1529,0.1418,0.1249,0.1249,0.0926,0.0923,0.0921]},{"header":{"parameterUnit":"m.s-1","parameterCategory":2,"la1":30.2991,"la2":30.254,"lo1":-89.0895,"lo2":-89.0444,"dy":0.0017,"dx":0.0017,"nx":28,"ny":28,"refTime":"2024-12-10T09:00:00:Z","depth":"0","parameterNumber":3,"parameterNumberName":"V-component_of_CURRENTS"},"data":[0,0,0,0,0,0,0,0,0,0,0,0,0,0,0,0,0,0,0,0,0,0,0,0,0,0,0,0,0,0,0,0,0,0,0,0,0,0,0,0,0,0,0,0,0,0,0,0,0,0,0,0,0,0,0,0,0,0,0.0038,0.0038,0,0.0019,0.0019,0.0019,0.0029,0.0029,0.0029,0.003,0.002,0.002,0.0019,0,0,0,0,0,0,0,0,0,0,0,0,0,0.0159,0.0157,0.0039,0.0038,0.0038,0.0019,0.0019,0.0019,0.0029,0.0029,0.0029,0.003,0.0021,0.002,0.0019,0,0,0,0,0,0,0,0,0,0,0,0,0,0.0122,0.0156,0.0039,0.0039,0.0038,0.0019,0.0019,0.0019,0.0029,0.0029,0.0029,0.003,0.0021,0.002,0.0019,0.0006,0,0,0.0017,0.0017,0,0,0,0,0,0,0,0,0.0124,0.0118,0.0039,0.0038,0.0038,0.0025,0.0058,0.0014,0.0028,0.0035,0.003,0.003,0.0021,0.002,0.0019,0.0005,0.0005,0.0017,0.0016,0.0016,0.0016,0,0,0,0,0,0,0,0.0126,0.0119,0.0033,0.0038,0.0038,0.0065,0.006,0.0051,0.0027,0.0034,0.0034,0.0028,0.0021,0.0019,0.0019,0.0005,0.0017,0.0016,0.0016,0.0015,-0.0011,-0.0011,0,0,0,0,0,0,0.0119,0.0121,0.0034,0.0032,0.0081,0.0062,0.0057,0.003,0.0027,0.0027,0.0028,0.0029,0.0021,0.0019,0.0018,0.0037,0.0016,0.0015,0.0015,-0.001,-0.0011,-0.0011,0,0,0,0,0,0,0.0122,0.0111,0.0034,0.0076,0.0068,0.0059,0.003,0.003,0.0029,0.0022,0.0022,0.0027,0.0021,0.0019,0.0012,0.0035,0.0015,0.0014,-0.001,-0.0011,-0.0011,0.0052,0,0,0,0,0,0,0.0125,0.0111,0.0098,0.0075,0.0065,0.0029,0.0029,0.0029,0.0024,0.0025,0.0022,0.0021,0.0021,0.0013,0.0011,0.0034,0.0014,-0.001,-0.001,-0.0011,0.005,0.0054,0.0057,0,0,0,0,0,0.0129,0.0119,0.0097,0.0087,0.0043,0.0029,0.0028,0.0025,0.0023,0.0026,0.002,0.0021,0.0009,0.0012,0.001,0.0033,-0.001,-0.001,-0.0011,0.0049,0.0053,0.0057,0,0,0,0,0,0,0.0194,0.0118,0.0094,0.0068,0.0047,0.003,0.0038,0.0024,0.002,0.0024,0.0016,0.0015,0.0016,0.0006,0.0009,0.002,0.0,-0.0,0.0046,0.005,0.0054,0.0143,0.0013,0,0,0,0,0,0.019,0.0154,0.01,0.009,0.0072,0.005,0.0045,0.0035,0.0025,0.0025,0.0018,0.0012,0.001,0.0016,0.0005,0.0012,0.0034,0.0023,0.0027,0.003,0.0098,0.0115,0.0128,-0.0013,-0.0013,-0.0013,0,0,0.0225,0.0175,0.0162,0.01,0.0086,0.0096,0.005,0.0043,0.0069,0.0023,0.0056,0.0018,0.0009,0.002,0.002,0.0019,0.0075,0.0029,0.0033,0.0101,0.0116,0.0131,0.0143,-0.0013,-0.0013,-0.0013,0,0,0.0294,0.0217,0.0218,0.0192,0.015,0.013,0.0125,0.0092,0.009,0.009,0.007,0.0059,0.0043,0.006,0.0063,0.0079,0.0082,0.0049,0.0157,0.017,0.0184,0.0196,0.0226,0.0241,0.0063,0.0063,0.0063,0,0.0345,0.032,0.0228,0.0231,0.0231,0.0151,0.0184,0.017,0.0146,0.0157,0.0111,0.0115,0.0083,0.0143,0.0143,0.0096,0.0104,0.0144,0.018,0.0193,0.0205,0.0232,0.0248,0.0066,0.0066,0.0066,0.0065,0,0.0413,0.04,0.0404,0.0372,0.0361,0.0366,0.0322,0.0313,0.0279,0.027,0.0285,0.0237,0.0257,0.0218,0.019,0.0255,0.0233,0.0173,0.0182,0.0224,0.0248,0.0263,0.007,0.0069,0.0068,0.0068,0,0,0.05,0.0461,0.0462,0.0468,0.0426,0.0421,0.0455,0.0459,0.049,0.0449,0.0512,0.0478,0.0443,0.0447,0.0393,0.0404,0.0455,0.0335,0.0334,0.039,0.0503,0.0445,0.0455,0.039,0.0393,0.0396,0.0483,0,0.0586,0.0617,0.0583,0.0639,0.0642,0.0592,0.0631,0.0625,0.0601,0.0629,0.0595,0.0611,0.0533,0.0525,0.0535,0.047,0.05,0.044,0.0437,0.0439,0.0402,0.0473,0.0434,0.0505,0.0497,0.05,0.0502,0,0.0645,0.0653,0.0714,0.0732,0.0734,0.0768,0.0788,0.0814,0.0831,0.0817,0.0845,0.0802,0.0842,0.0733,0.0741,0.07,0.064,0.0584,0.0583,0.0539,0.041,0.0463,0.0533,0.0435,0.0525,0.0523,0.0521,0,0.0688,0.0736,0.0783,0.0787,0.0804,0.084,0.0858,0.0873,0.0894,0.0944,0.096,0.0996,0.0994,0.0958,0.084,0.0796,0.0825,0.0737,0.0652,0.0646,0.0628,0.0615,0.0635,0.0774,0.0773,0.0773,0.0773,0,0.0743,0.0778,0.0806,0.0818,0.0879,0.0888,0.0955,0.0968,0.1021,0.1069,0.1063,0.1108,0.1043,0.1026,0.093,0.0854,0.0902,0.0731,0.0683,0.0641,0.0629,0.0551,0.0499,0.0776,0.0776,0.0775,0.0775,0,0.0755,0.0778,0.082,0.0869,0.0883,0.0919,0.098,0.103,0.1077,0.1147,0.117,0.1206,0.1198,0.1119,0.1053,0.0955,0.0827,0.0832,0.0798,0.0746,0.0568,0.052,0.0565,0.0528,0.0796,0.0796,0.0795,0,0.0761,0.0782,0.0829,0.0854,0.0876,0.0933,0.0971,0.1033,0.109,0.1199,0.1242,0.1274,0.1295,0.1207,0.1049,0.0934,0.0821,0.08,0.0714,0.0612,0.0524,0.0495,0.0458,0.071,0.0709,0.0708,0.0707,0,0.0771,0.0783,0.0817,0.0858,0.0902,0.0959,0.103,0.1081,0.1174,0.1248,0.1354,0.1392,0.1319,0.1199,0.1024,0.0918,0.0733,0.0775,0.0685,0.0507,0.0469,0.0388,0.0604,0.0699,0.07,0.07,0.0701,0.0701,0.0772,0.0792,0.0831,0.0875,0.0923,0.0994,0.1052,0.1144,0.1244,0.1369,0.1414,0.1469,0.1287,0.1058,0.0923,0.0633,0.0669,0.0527,0.0497,0.0492,0.0411,0.0619,0.063,0.063,0.0631,0.0631,0.0631,0,0.0772,0.0803,0.0847,0.0906,0.0962,0.0989,0.1098,0.1172,0.1293,0.1386,0.1476,0.1378,0.1157,0.0916,0.0544,0.0374,0.0326,0.0287,0.0245,0.0233,0.0434,0.0379,0.0316,0.0316,0.0316,0.0316,0.0316,0.0317,0.0775,0.0814,0.0842,0.0929,0.0976,0.1067,0.1134,0.1237,0.1319,0.1399,0.1396,0.1395,0.1158,0.0583,0.0194,0.0128,0.0026,0.0013,-0.0015,0.0098,0.0118,0.0137,0.0073,-0.0053,-0.0054,-0.0212,-0.0214,-0.0216]}],[{"header":{"parameterUnit":"m.s-1","parameterCategory":2,"la1":30.2991,"la2":30.254,"lo1":-89.0895,"lo2":-89.0444,"dy":0.0017,"dx":0.0017,"nx":28,"ny":28,"refTime":"2024-12-10T09:00:00:Z","depth":"2","parameterNumber":2,"parameterNumberName":"U-component_of_CURRENTS"},"data":[0,0,0,0,0,0,0,0,0,0,0,0,0,0,0,0,0,0,0,0,0,0,0,0,0,0,0,0,0,0,0,0,0,0,0,0,0,0,0,0,0,0,0,0,0,0,0,0,0,0,0,0,0,0,0,0,0,0,0.0868,0.0868,0,0.0842,0.0842,0.0842,0.083,0.083,0.083,0.083,0.084,0.084,0.084,0,0,0,0,0,0,0,0,0,0,0,0,0,0.09,0.09,0.0868,0.0868,0.0868,0.0842,0.0842,0.0842,0.083,0.083,0.083,0.083,0.084,0.084,0.084,0,0,0,0,0,0,0,0,0,0,0,0,0,0.0881,0.0899,0.0869,0.0859,0.0858,0.0842,0.0842,0.0841,0.083,0.083,0.083,0.083,0.0839,0.084,0.084,0.084,0,0,0.0841,0.0841,0,0,0,0,0,0,0,0,0.0882,0.088,0.0861,0.086,0.0859,0.084,0.0857,0.0843,0.083,0.084,0.083,0.083,0.0843,0.0843,0.0837,0.0841,0.0841,0.0841,0.0841,0.0841,0.0841,0,0,0,0,0,0,0,0.0884,0.0881,0.0858,0.0861,0.0859,0.0854,0.0851,0.0854,0.0842,0.0839,0.0839,0.0836,0.0843,0.0837,0.0837,0.0841,0.0841,0.0841,0.0841,0.0842,0.0853,0.0853,0,0,0,0,0,0,0.0888,0.0882,0.0859,0.0857,0.0871,0.0853,0.085,0.0845,0.0841,0.084,0.0836,0.0836,0.0836,0.0837,0.0838,0.0862,0.0841,0.0842,0.0842,0.0853,0.0853,0.0853,0,0,0,0,0,0,0.0888,0.0886,0.086,0.0869,0.0866,0.0852,0.0847,0.0845,0.0842,0.0838,0.0838,0.0836,0.0836,0.0837,0.0838,0.0861,0.0842,0.0842,0.0853,0.0853,0.0853,0.0895,0,0,0,0,0,0,0.0889,0.0886,0.0889,0.087,0.0865,0.0857,0.0847,0.0844,0.084,0.0839,0.0838,0.0838,0.0836,0.0838,0.0839,0.0861,0.0842,0.0853,0.0853,0.0853,0.0893,0.0896,0.0899,0,0,0,0,0,0.0891,0.0899,0.0889,0.0887,0.0868,0.0857,0.0855,0.0845,0.084,0.0842,0.0835,0.0839,0.084,0.0838,0.0839,0.0862,0.0853,0.0853,0.0853,0.0892,0.0896,0.0899,0,0,0,0,0,0,0.0918,0.0897,0.0887,0.0889,0.0876,0.0856,0.086,0.0848,0.0843,0.0843,0.0837,0.0838,0.0846,0.0843,0.0841,0.0864,0.0848,0.0849,0.0878,0.0881,0.0884,0.0963,0.0842,0,0,0,0,0,0.0924,0.0921,0.09,0.0901,0.0897,0.0877,0.0873,0.0862,0.0852,0.085,0.0845,0.0844,0.0847,0.0855,0.0851,0.0866,0.0904,0.0881,0.0884,0.0887,0.095,0.1004,0.102,0.0854,0.0854,0.0854,0,0,0.0936,0.0923,0.0922,0.0906,0.0896,0.0906,0.0875,0.087,0.0889,0.0853,0.0875,0.085,0.0849,0.0862,0.0868,0.0867,0.0945,0.0887,0.089,0.0953,0.1007,0.1023,0.1038,0.0854,0.0854,0.0854,0,0,0.096,0.0946,0.0954,0.0953,0.0938,0.0925,0.0925,0.0904,0.0907,0.0909,0.0893,0.0892,0.0884,0.0901,0.0907,0.0927,0.0951,0.0908,0.1001,0.1051,0.1067,0.1081,0.1123,0.1141,0.0919,0.0919,0.0919,0,0.098,0.0985,0.0956,0.0973,0.0991,0.0939,0.0971,0.0962,0.0944,0.0966,0.0924,0.0939,0.0918,0.0975,0.0979,0.0942,0.0972,0.0986,0.106,0.1075,0.1089,0.1129,0.1148,0.0921,0.092,0.092,0.092,0,0.1015,0.1027,0.1035,0.1042,0.1057,0.1067,0.1061,0.1064,0.1047,0.1043,0.1073,0.1038,0.1065,0.1034,0.1018,0.1103,0.1091,0.1049,0.106,0.1109,0.1146,0.1165,0.0924,0.0923,0.0922,0.0922,0,0,0.104,0.1058,0.1065,0.1073,0.1101,0.1097,0.1155,0.1184,0.1208,0.119,0.1253,0.1238,0.122,0.123,0.1193,0.1234,0.1322,0.1198,0.12,0.1259,0.1443,0.1286,0.1292,0.1293,0.1297,0.13,0.1419,0,0.1079,0.1112,0.1139,0.1178,0.1187,0.121,0.1259,0.1284,0.1288,0.1321,0.1326,0.1342,0.1293,0.1291,0.1337,0.1318,0.1382,0.1296,0.1374,0.1378,0.1248,0.1312,0.1191,0.1275,0.1438,0.1442,0.1444,0,0.1103,0.1119,0.1175,0.1218,0.1233,0.1269,0.1337,0.1377,0.1439,0.1447,0.1503,0.1489,0.1564,0.1488,0.1573,0.152,0.1523,0.1506,0.1508,0.1381,0.1258,0.1256,0.1304,0.1477,0.1474,0.1472,0.147,0,0.108,0.114,0.1179,0.1199,0.125,0.1307,0.1351,0.1419,0.1451,0.1542,0.1557,0.1645,0.1655,0.1712,0.1675,0.1646,0.1747,0.1687,0.1568,0.1556,0.1484,0.1457,0.1797,0.1797,0.1797,0.1796,0.1796,0,0.1085,0.1106,0.1162,0.1174,0.1218,0.1293,0.1357,0.1407,0.1502,0.1537,0.1618,0.1639,0.1711,0.1751,0.1753,0.1713,0.1816,0.1633,0.1592,0.1484,0.1458,0.1657,0.1639,0.1801,0.18,0.1799,0.1798,0,0.1028,0.107,0.1097,0.1175,0.1194,0.123,0.1334,0.1366,0.1468,0.153,0.1568,0.166,0.1703,0.1751,0.1813,0.1758,0.1763,0.1727,0.1586,0.1525,0.1533,0.1516,0.1645,0.1641,0.1638,0.1635,0.1632,0,0.101,0.1011,0.107,0.1083,0.1119,0.1181,0.1212,0.1326,0.1363,0.1506,0.1519,0.1613,0.1623,0.1661,0.1626,0.1638,0.1692,0.1498,0.1412,0.1579,0.1527,0.1515,0.1503,0.134,0.1335,0.1332,0.1329,0,0.0964,0.0979,0.0999,0.102,0.1051,0.1082,0.1149,0.1167,0.1301,0.1354,0.143,0.1476,0.1503,0.1436,0.1421,0.1403,0.1485,0.1412,0.1678,0.1353,0.1288,0.1236,0.1236,0.1295,0.1298,0.13,0.1302,0.1304,0.0939,0.0925,0.0945,0.0964,0.0991,0.1006,0.1025,0.1077,0.1129,0.1194,0.1258,0.1266,0.1275,0.1166,0.1146,0.1147,0.1234,0.1182,0.1197,0.1216,0.1115,0.1042,0.0986,0.0988,0.0989,0.099,0.0991,0,0.0898,0.0884,0.0891,0.091,0.0918,0.0968,0.0991,0.0994,0.1022,0.1026,0.1051,0.0929,0.087,0.0929,0.0868,0.0839,0.0877,0.0814,0.087,0.0903,0.0932,0.082,0.0612,0.0611,0.061,0.0609,0,0,0.0873,0.0836,0.083,0.0835,0.0874,0.0883,0.09,0.0884,0.0873,0.0807,0.0775,0.0755,0.084,0.0679,0.0668,0.0644,0.0772,0.0618,0.0919,0.1015,0.1044,0.1134,0.0994,0,0,0,0,0]},{"header":{"parameterUnit":"m.s-1","parameterCategory":2,"la1":30.2991,"la2":30.254,"lo1":-89.0895,"lo2":-89.0444,"dy":0.0017,"dx":0.0017,"nx":28,"ny":28,"refTime":"2024-12-10T09:00:00:Z","depth":"2","parameterNumber":3,"parameterNumberName":"V-component_of_CURRENTS"},"data":[0,0,0,0,0,0,0,0,0,0,0,0,0,0,0,0,0,0,0,0,0,0,0,0,0,0,0,0,0,0,0,0,0,0,0,0,0,0,0,0,0,0,0,0,0,0,0,0,0,0,0,0,0,0,0,0,0,0,-0.0126,-0.0127,0,-0.0138,-0.0138,-0.0138,-0.0134,-0.0134,-0.0134,-0.0134,-0.016,-0.0161,-0.0162,0,0,0,0,0,0,0,0,0,0,0,0,0,-0.0121,-0.0121,-0.0126,-0.0127,-0.0127,-0.0138,-0.0138,-0.0138,-0.0134,-0.0134,-0.0134,-0.0134,-0.016,-0.0161,-0.0162,0,0,0,0,0,0,0,0,0,0,0,0,0,-0.0126,-0.0121,-0.0126,-0.0127,-0.0128,-0.0137,-0.0138,-0.0138,-0.0134,-0.0134,-0.0134,-0.0134,-0.016,-0.0161,-0.0162,-0.0173,0,0,-0.0166,-0.0166,0,0,0,0,0,0,0,0,-0.0126,-0.0126,-0.0127,-0.0127,-0.0128,-0.0135,-0.0146,-0.0151,-0.0134,-0.0131,-0.0134,-0.0134,-0.0154,-0.0156,-0.0157,-0.0174,-0.0175,-0.0166,-0.0167,-0.0167,-0.0168,0,0,0,0,0,0,0,-0.0125,-0.0126,-0.0129,-0.0127,-0.0128,-0.0134,-0.0134,-0.0146,-0.0143,-0.0131,-0.0131,-0.0134,-0.0155,-0.0155,-0.0157,-0.0176,-0.0166,-0.0167,-0.0168,-0.0168,-0.019,-0.0189,0,0,0,0,0,0,-0.0126,-0.0125,-0.0129,-0.013,-0.0128,-0.0134,-0.0134,-0.0132,-0.0142,-0.0144,-0.0134,-0.0134,-0.0153,-0.0156,-0.0158,-0.0165,-0.0167,-0.0168,-0.0169,-0.019,-0.019,-0.0189,0,0,0,0,0,0,-0.0125,-0.0126,-0.0129,-0.0129,-0.013,-0.0135,-0.0132,-0.0132,-0.0133,-0.0145,-0.0147,-0.0134,-0.0153,-0.0156,-0.0165,-0.0167,-0.0169,-0.017,-0.019,-0.019,-0.0189,-0.0184,0,0,0,0,0,0,-0.0125,-0.0125,-0.0124,-0.0129,-0.013,-0.0134,-0.0132,-0.0133,-0.0136,-0.0135,-0.0145,-0.0148,-0.0153,-0.0163,-0.0166,-0.0168,-0.0171,-0.019,-0.019,-0.0189,-0.0185,-0.0184,-0.0183,0,0,0,0,0,-0.0125,-0.0128,-0.0123,-0.0124,-0.0127,-0.0134,-0.0135,-0.0137,-0.0136,-0.0136,-0.014,-0.0147,-0.0163,-0.0164,-0.0167,-0.017,-0.019,-0.019,-0.019,-0.0185,-0.0184,-0.0183,0,0,0,0,0,0,-0.0129,-0.0128,-0.0123,-0.0126,-0.0128,-0.0134,-0.0138,-0.0137,-0.014,-0.014,-0.0148,-0.0151,-0.0157,-0.0164,-0.0165,-0.0174,-0.0177,-0.0177,-0.0172,-0.0171,-0.0171,-0.0161,-0.0172,0,0,0,0,0,-0.0128,-0.0131,-0.0128,-0.0134,-0.0131,-0.0132,-0.0135,-0.0135,-0.014,-0.0141,-0.0147,-0.0153,-0.0159,-0.0165,-0.0171,-0.0181,-0.0188,-0.0183,-0.0183,-0.0182,-0.0176,-0.0185,-0.0185,-0.0188,-0.0188,-0.0188,0,0,-0.0135,-0.0135,-0.0137,-0.0135,-0.0136,-0.0135,-0.0134,-0.0139,-0.0137,-0.0145,-0.0147,-0.0152,-0.016,-0.0166,-0.017,-0.0173,-0.0187,-0.0181,-0.0181,-0.0175,-0.0185,-0.0185,-0.0184,-0.0188,-0.0188,-0.0188,0,0,-0.016,-0.0145,-0.0156,-0.0147,-0.0147,-0.0143,-0.0143,-0.0143,-0.0138,-0.0141,-0.0144,-0.0151,-0.016,-0.0166,-0.0171,-0.0171,-0.0182,-0.0171,-0.0164,-0.0173,-0.0173,-0.0173,-0.0192,-0.0194,-0.0173,-0.0173,-0.0173,0,-0.0163,-0.0172,-0.0162,-0.0163,-0.0149,-0.0145,-0.014,-0.0141,-0.0144,-0.0137,-0.0141,-0.0147,-0.0161,-0.0163,-0.0163,-0.0171,-0.0176,-0.0168,-0.0172,-0.0172,-0.0172,-0.0192,-0.0194,-0.0172,-0.0173,-0.0173,-0.0173,0,-0.0185,-0.0189,-0.0193,-0.0185,-0.0169,-0.0166,-0.015,-0.0143,-0.0135,-0.0136,-0.0132,-0.0145,-0.0145,-0.0154,-0.016,-0.0164,-0.0169,-0.017,-0.0175,-0.0172,-0.0193,-0.0195,-0.0172,-0.0172,-0.0172,-0.0172,0,0,-0.0184,-0.0205,-0.0199,-0.0206,-0.017,-0.0169,-0.0145,-0.0128,-0.012,-0.0124,-0.011,-0.0128,-0.0129,-0.0133,-0.0141,-0.0154,-0.017,-0.0159,-0.016,-0.018,-0.0195,-0.0204,-0.0207,-0.0168,-0.0168,-0.0168,-0.0214,0,-0.0196,-0.0221,-0.0204,-0.0209,-0.0215,-0.0171,-0.0146,-0.0127,-0.0114,-0.0105,-0.0109,-0.0104,-0.0122,-0.0115,-0.0134,-0.0149,-0.0173,-0.0158,-0.0193,-0.0195,-0.0204,-0.0209,-0.017,-0.0207,-0.0216,-0.0216,-0.0216,0,-0.0198,-0.0221,-0.0226,-0.0226,-0.0215,-0.02,-0.0144,-0.0128,-0.0099,-0.0082,-0.0074,-0.0072,-0.0078,-0.0095,-0.0134,-0.0119,-0.0158,-0.0182,-0.0184,-0.0192,-0.0207,-0.0209,-0.0211,-0.022,-0.022,-0.0219,-0.0219,0,-0.0201,-0.0225,-0.0233,-0.0225,-0.0217,-0.019,-0.0169,-0.0122,-0.0096,-0.0064,-0.0038,-0.0049,-0.0039,-0.008,-0.013,-0.0123,-0.0183,-0.0181,-0.0234,-0.0235,-0.021,-0.0209,-0.0223,-0.0223,-0.0223,-0.0223,-0.0223,0,-0.0199,-0.0213,-0.0245,-0.0245,-0.0235,-0.0209,-0.0169,-0.0141,-0.0093,-0.0055,-0.0034,-0.0013,-0.0031,-0.0062,-0.0121,-0.0185,-0.0179,-0.0232,-0.0245,-0.0208,-0.0207,-0.0219,-0.0217,-0.0225,-0.0224,-0.0224,-0.0224,0,-0.0192,-0.0215,-0.0235,-0.024,-0.0237,-0.0222,-0.0167,-0.0144,-0.0089,-0.0032,-0.001,0.0017,-0.0005,-0.0054,-0.012,-0.0165,-0.0232,-0.0267,-0.0228,-0.0234,-0.028,-0.0279,-0.0307,-0.0308,-0.0309,-0.0309,-0.0309,0,-0.0199,-0.0212,-0.0225,-0.0228,-0.0227,-0.0208,-0.0178,-0.0135,-0.0096,-0.002,0.0007,0.0013,0.0019,-0.0084,-0.0139,-0.0228,-0.0266,-0.0273,-0.0254,-0.0278,-0.0288,-0.0285,-0.0282,-0.0225,-0.0225,-0.0225,-0.0224,0,-0.0209,-0.0199,-0.0203,-0.021,-0.02,-0.0185,-0.0146,-0.0114,-0.004,0.0023,0.0081,0.0088,0.0024,-0.0029,-0.0145,-0.021,-0.0246,-0.027,-0.0302,-0.0209,-0.0204,-0.0212,-0.0212,-0.0222,-0.0222,-0.0222,-0.0222,-0.0222,-0.0197,-0.0191,-0.0186,-0.0182,-0.0172,-0.0146,-0.0107,-0.005,0.0028,0.0155,0.0134,0.0179,0.0087,-0.0018,-0.0125,-0.0218,-0.0228,-0.0264,-0.0263,-0.0263,-0.0245,-0.0241,-0.0263,-0.0263,-0.0264,-0.0264,-0.0264,0,-0.0193,-0.0179,-0.017,-0.0153,-0.0124,-0.0126,-0.0067,-0.0001,0.0114,0.0204,0.0284,0.023,0.0151,0.0025,-0.0087,-0.0181,-0.0174,-0.0229,-0.0193,-0.0196,-0.0198,-0.0175,-0.0175,-0.0175,-0.0175,-0.0175,0,0,-0.0188,-0.018,-0.0164,-0.0112,-0.0086,-0.0028,0.0017,0.0118,0.0198,0.031,0.0359,0.0382,0.0197,0.0136,0.0001,-0.008,-0.0114,-0.0098,-0.016,-0.0104,-0.0104,-0.021,-0.0176,0,0,0,0,0]}],[{"header":{"parameterUnit":"m.s-1","parameterCategory":2,"la1":30.2991,"la2":30.254,"lo1":-89.0895,"lo2":-89.0444,"dy":0.0017,"dx":0.0017,"nx":28,"ny":28,"refTime":"2024-12-10T09:00:00:Z","depth":"4","parameterNumber":2,"parameterNumberName":"U-component_of_CURRENTS"},"data":[0,0,0,0,0,0,0,0,0,0,0,0,0,0,0,0,0,0,0,0,0,0,0,0,0,0,0,0,0,0,0,0,0,0,0,0,0,0,0,0,0,0,0,0,0,0,0,0,0,0,0,0,0,0,0,0,0,0,0.0185,0.0185,0,0.02,0.02,0.02,0.0229,0.023,0.0231,0.0231,0.0291,0.0292,0.0293,0,0,0,0,0,0,0,0,0,0,0,0,0,0.0105,0.0107,0.0185,0.0185,0.0185,0.02,0.02,0.02,0.0229,0.023,0.0231,0.0232,0.0291,0.0292,0.0293,0,0,0,0,0,0,0,0,0,0,0,0,0,0.0131,0.0108,0.0185,0.0203,0.0205,0.02,0.02,0.02,0.0229,0.023,0.0231,0.0232,0.0291,0.0292,0.0293,0.0281,0,0,0.0298,0.0298,0,0,0,0,0,0,0,0,0.0129,0.0134,0.02,0.0201,0.0204,0.0215,0.0194,0.023,0.0229,0.0218,0.0231,0.0232,0.027,0.0273,0.0271,0.0284,0.0286,0.0298,0.0299,0.0299,0.03,0,0,0,0,0,0,0,0.0128,0.0133,0.0189,0.02,0.0202,0.0184,0.019,0.02,0.0238,0.0219,0.0222,0.0225,0.0271,0.0269,0.0273,0.0287,0.0298,0.0299,0.03,0.03,0.0364,0.0365,0,0,0,0,0,0,0.0132,0.0132,0.0189,0.019,0.017,0.0185,0.0191,0.0209,0.0237,0.0242,0.0224,0.0227,0.0267,0.0271,0.0275,0.0324,0.0299,0.03,0.0301,0.0363,0.0364,0.0365,0,0,0,0,0,0,0.013,0.0138,0.0188,0.0161,0.0167,0.0186,0.0206,0.0209,0.0224,0.024,0.0247,0.0239,0.0268,0.0273,0.0301,0.0325,0.0301,0.0302,0.0362,0.0364,0.0365,0.0383,0,0,0,0,0,0,0.0128,0.0137,0.0154,0.0162,0.0168,0.0197,0.0205,0.0208,0.0225,0.0228,0.0255,0.026,0.0269,0.0299,0.0303,0.0326,0.0304,0.0361,0.0363,0.0364,0.0381,0.0384,0.0387,0,0,0,0,0,0.0126,0.0148,0.0155,0.0162,0.0191,0.0198,0.0199,0.0214,0.0225,0.0232,0.0253,0.026,0.0312,0.03,0.0305,0.0329,0.036,0.0362,0.0364,0.038,0.0384,0.0387,0,0,0,0,0,0,0.0113,0.0154,0.0161,0.0193,0.0199,0.0204,0.0216,0.0221,0.024,0.0253,0.0265,0.0272,0.031,0.0313,0.03,0.0353,0.034,0.0343,0.035,0.0354,0.0357,0.0368,0.0305,0,0,0,0,0,0.012,0.0157,0.017,0.0194,0.0202,0.0209,0.0215,0.0226,0.0241,0.0251,0.027,0.0293,0.0316,0.033,0.0351,0.0371,0.0385,0.0392,0.0395,0.0397,0.041,0.0449,0.0457,0.0372,0.0372,0.0371,0,0,0.0114,0.0147,0.0162,0.0195,0.0204,0.0218,0.0216,0.0235,0.0251,0.0255,0.0291,0.0308,0.0325,0.0356,0.0373,0.0364,0.0427,0.04,0.0402,0.0413,0.0452,0.046,0.0467,0.0373,0.0373,0.0372,0,0,0.0121,0.0158,0.0184,0.0199,0.0225,0.0235,0.0243,0.0259,0.0273,0.0299,0.0313,0.0342,0.0372,0.039,0.0401,0.0432,0.0446,0.0442,0.0464,0.0501,0.0509,0.0515,0.0534,0.0542,0.0439,0.044,0.044,0,0.0106,0.0152,0.0186,0.0212,0.022,0.0245,0.0252,0.0275,0.0299,0.031,0.032,0.0371,0.039,0.0422,0.0441,0.0441,0.046,0.0446,0.0506,0.0513,0.0519,0.0537,0.0546,0.0441,0.044,0.044,0.044,0,0.0133,0.0163,0.0179,0.0228,0.0241,0.0256,0.0284,0.0308,0.0331,0.0349,0.0391,0.0413,0.0445,0.0455,0.0462,0.0515,0.0512,0.0508,0.0495,0.0529,0.0545,0.0554,0.0442,0.0442,0.0441,0.0441,0,0,0.0095,0.0178,0.0178,0.0197,0.0248,0.0256,0.0295,0.0321,0.0349,0.0388,0.0414,0.0464,0.0485,0.05,0.0511,0.0544,0.0606,0.0553,0.0554,0.0569,0.0685,0.058,0.0579,0.0617,0.0619,0.062,0.0673,0,0.0091,0.0135,0.0178,0.0205,0.0222,0.0259,0.029,0.0327,0.0364,0.0405,0.0442,0.0485,0.0499,0.0521,0.056,0.0594,0.0633,0.0592,0.0652,0.0653,0.0555,0.0587,0.0627,0.068,0.0682,0.0683,0.0685,0,0.0093,0.0125,0.0149,0.0196,0.0204,0.0234,0.0277,0.0311,0.0382,0.041,0.0463,0.0501,0.0562,0.057,0.0655,0.0631,0.0673,0.0696,0.0698,0.0603,0.0565,0.0642,0.0701,0.07,0.0698,0.0697,0.0696,0,0.0047,0.0096,0.0115,0.0132,0.0197,0.0216,0.0253,0.0317,0.0355,0.0429,0.0469,0.0531,0.0583,0.0637,0.0672,0.0689,0.0745,0.0769,0.0713,0.0705,0.0776,0.0769,0.0848,0.0848,0.0848,0.0848,0.0847,0,0.0031,0.0046,0.0104,0.0119,0.0147,0.0197,0.0244,0.0287,0.0364,0.0413,0.0485,0.0516,0.0614,0.0646,0.0678,0.0694,0.075,0.0726,0.0717,0.078,0.0773,0.0782,0.0774,0.0849,0.0849,0.0849,0.0848,0,0.0,0.0035,0.0062,0.0116,0.0137,0.0164,0.025,0.0285,0.0365,0.043,0.0461,0.0544,0.0589,0.063,0.0703,0.07,0.0714,0.0705,0.074,0.073,0.0663,0.0655,0.0698,0.0695,0.0692,0.069,0.0688,0,0.0002,0.0013,0.0054,0.0072,0.0109,0.0161,0.0197,0.0278,0.0316,0.0421,0.0439,0.052,0.0562,0.0569,0.0613,0.0644,0.0648,0.0654,0.0706,0.0664,0.0651,0.0647,0.0643,0.0684,0.0683,0.0682,0.0682,0,-0.0,0.0009,0.0024,0.0052,0.0087,0.0124,0.0183,0.0207,0.0297,0.0378,0.0421,0.0461,0.0503,0.0535,0.0542,0.0563,0.0646,0.0627,0.0636,0.0685,0.0647,0.0636,0.0635,0.0672,0.0674,0.0674,0.0675,0,-0.0007,-0.0006,0.0004,0.003,0.0062,0.0078,0.0112,0.0163,0.0214,0.0339,0.0333,0.0408,0.0479,0.049,0.0476,0.0491,0.054,0.0553,0.0567,0.0578,0.051,0.0442,0.0405,0,0,0,0,0,-0.0012,-0.0019,-0.0011,0.0002,0.0027,0.0049,0.0097,0.0133,0.0216,0.024,0.0299,0.0328,0.0374,0.0392,0.0397,0.0434,0.0525,0.0436,0.0542,0.0621,0.0632,0.0561,0,0,0,0,0,0,-0.002,-0.0019,-0.0028,-0.0027,-0.0016,0.0006,0.0032,0.0082,0.01,0.0194,0.0214,0.0306,0.034,0.0375,0.0392,0.0402,0.0461,0.0486,0.0485,0.0615,0.0624,0.0633,0.0565,0,0,0,0,0]},{"header":{"parameterUnit":"m.s-1","parameterCategory":2,"la1":30.2991,"la2":30.254,"lo1":-89.0895,"lo2":-89.0444,"dy":0.0017,"dx":0.0017,"nx":28,"ny":28,"refTime":"2024-12-10T09:00:00:Z","depth":"4","parameterNumber":3,"parameterNumberName":"V-component_of_CURRENTS"},"data":[0,0,0,0,0,0,0,0,0,0,0,0,0,0,0,0,0,0,0,0,0,0,0,0,0,0,0,0,0,0,0,0,0,0,0,0,0,0,0,0,0,0,0,0,0,0,0,0,0,0,0,0,0,0,0,0,0,0,0.0209,0.0209,0,0.0238,0.0238,0.0239,0.0256,0.0256,0.0256,0.0256,0.0267,0.0267,0.0267,0,0,0,0,0,0,0,0,0,0,0,0,0,0.0181,0.0182,0.0208,0.0209,0.0209,0.0238,0.0238,0.0239,0.0256,0.0256,0.0256,0.0256,0.0267,0.0267,0.0267,0,0,0,0,0,0,0,0,0,0,0,0,0,0.0201,0.0182,0.0208,0.0221,0.0222,0.0238,0.0238,0.0239,0.0256,0.0256,0.0256,0.0256,0.0266,0.0267,0.0267,0.0269,0,0,0.0269,0.0269,0,0,0,0,0,0,0,0,0.0199,0.0202,0.0219,0.022,0.0221,0.0243,0.0232,0.0248,0.0256,0.0244,0.0256,0.0256,0.0256,0.0258,0.0264,0.027,0.027,0.0269,0.0269,0.0269,0.0269,0,0,0,0,0,0,0,0.0198,0.0201,0.0221,0.0219,0.0221,0.0229,0.0232,0.0236,0.025,0.0245,0.0246,0.0248,0.0257,0.0264,0.0265,0.027,0.0269,0.0269,0.0269,0.0269,0.0276,0.0276,0,0,0,0,0,0,0.0192,0.0199,0.022,0.0222,0.0209,0.023,0.0233,0.0236,0.025,0.0252,0.0248,0.0249,0.0263,0.0264,0.0265,0.0252,0.0269,0.0269,0.027,0.0276,0.0276,0.0276,0,0,0,0,0,0,0.0192,0.0194,0.0219,0.021,0.0214,0.023,0.0234,0.0237,0.0246,0.0253,0.0255,0.0254,0.0263,0.0265,0.0273,0.0254,0.027,0.027,0.0276,0.0276,0.0276,0.0237,0,0,0,0,0,0,0.0191,0.0194,0.0192,0.021,0.0214,0.0224,0.0234,0.0237,0.0247,0.0248,0.0259,0.026,0.0263,0.0272,0.0273,0.0254,0.027,0.0276,0.0276,0.0276,0.0239,0.0236,0.0233,0,0,0,0,0,0.019,0.018,0.0192,0.0195,0.0213,0.0224,0.0227,0.0239,0.0247,0.0248,0.026,0.0259,0.0272,0.0273,0.0274,0.0255,0.0276,0.0276,0.0276,0.024,0.0236,0.0234,0,0,0,0,0,0,0.0158,0.0181,0.0195,0.0191,0.0208,0.0226,0.0222,0.024,0.0251,0.0249,0.0263,0.0265,0.0266,0.0271,0.0271,0.0258,0.0272,0.0272,0.0244,0.0241,0.0238,0.0205,0.0271,0,0,0,0,0,0.0153,0.0153,0.0182,0.0175,0.0184,0.0207,0.0213,0.0224,0.0237,0.0243,0.0254,0.0262,0.0266,0.0262,0.0271,0.0263,0.0242,0.0251,0.0248,0.0246,0.0221,0.0172,0.0162,0.0275,0.0275,0.0275,0,0,0.0136,0.0148,0.0147,0.0168,0.018,0.0179,0.021,0.0214,0.0208,0.0241,0.0236,0.0258,0.0266,0.0259,0.0258,0.0258,0.0209,0.0246,0.0243,0.0219,0.0171,0.0159,0.0149,0.0275,0.0275,0.0275,0,0,0.0097,0.0116,0.0107,0.0119,0.0139,0.0153,0.0156,0.0183,0.0191,0.0198,0.0218,0.0225,0.0237,0.0232,0.0231,0.0218,0.0204,0.0229,0.0176,0.013,0.0119,0.011,0.0089,0.0078,0.0218,0.0218,0.0218,0,0.0076,0.0081,0.0104,0.0098,0.0109,0.014,0.0139,0.0141,0.0166,0.0172,0.0188,0.0203,0.0214,0.0193,0.0188,0.0207,0.0188,0.0186,0.0123,0.0113,0.0104,0.0085,0.0072,0.0216,0.0216,0.0217,0.0217,0,0.0037,0.0044,0.0037,0.0045,0.0052,0.0058,0.0073,0.008,0.0101,0.011,0.0114,0.0133,0.0136,0.0145,0.0158,0.0106,0.0119,0.0131,0.0124,0.0089,0.0073,0.0061,0.0213,0.0214,0.0215,0.0215,0,0,0.0015,0.0012,0.0015,0.0038,0.0038,0.0057,0.0026,0.0039,0.0045,0.0044,0.0045,0.0038,0.0054,0.0053,0.0075,0.0032,-0.0036,0.0045,0.0044,0.0012,-0.0129,-0.0042,-0.0046,-0.004,-0.0043,-0.0045,-0.0107,0,-0.0003,-0.001,-0.0018,-0.0006,0.0018,0.0023,0.0008,0.0009,0.0019,0.0022,0.0009,0.0015,0.0015,0.003,-0.0022,-0.0019,-0.0073,-0.002,-0.008,-0.0082,-0.0012,-0.006,-0.0053,-0.0116,-0.0119,-0.0121,-0.0123,0,-0.0004,0.0003,-0.0003,0.0033,0.004,0.0026,0.0049,0.0038,0.0013,0.0017,-0.0017,-0.0016,-0.0076,-0.006,-0.015,-0.0116,-0.0143,-0.0153,-0.0155,-0.0078,-0.0019,-0.0078,-0.0144,-0.0143,-0.0141,-0.014,-0.0138,0,0.0043,0.0042,0.0048,0.0052,0.0058,0.0054,0.0054,0.0038,0.0053,0.0002,0.0012,-0.0068,-0.0071,-0.0159,-0.0166,-0.0182,-0.0236,-0.0258,-0.0214,-0.0207,-0.025,-0.0239,-0.0351,-0.0351,-0.035,-0.035,-0.035,0,0.0071,0.0093,0.0072,0.0085,0.0113,0.0097,0.0117,0.0099,0.0081,0.0095,0.0013,0.0019,-0.0099,-0.0123,-0.0182,-0.0208,-0.0257,-0.0244,-0.023,-0.0258,-0.0247,-0.0257,-0.0245,-0.0353,-0.0352,-0.0352,-0.0351,0,0.0123,0.0105,0.0133,0.013,0.0138,0.0156,0.0168,0.0186,0.015,0.0161,0.014,0.0075,0.0011,-0.0054,-0.0153,-0.0186,-0.0239,-0.0229,-0.0221,-0.0201,-0.0194,-0.0183,-0.0267,-0.0265,-0.0263,-0.0261,-0.026,0,0.0132,0.0149,0.0169,0.0186,0.0178,0.0204,0.0227,0.0217,0.0234,0.0213,0.0224,0.0166,0.0118,0.0037,-0.0046,-0.016,-0.016,-0.0193,-0.0261,-0.0214,-0.0192,-0.0184,-0.0177,-0.0257,-0.0257,-0.0256,-0.0256,0,0.0157,0.0161,0.0176,0.0215,0.0242,0.0285,0.031,0.0326,0.0314,0.0313,0.0278,0.0208,0.0167,0.0052,0.0013,-0.0071,-0.0192,-0.0175,-0.0183,-0.0247,-0.0202,-0.0181,-0.0176,-0.0249,-0.025,-0.0251,-0.0251,0,0.016,0.0178,0.0194,0.0229,0.0277,0.0315,0.0337,0.0348,0.0361,0.033,0.0335,0.0249,0.0203,0.0106,0.0066,0.0,-0.0069,-0.0122,-0.0134,-0.0142,-0.0075,0.0002,0.0009,0,0,0,0,0,0.0157,0.0175,0.0207,0.0237,0.0288,0.0315,0.0369,0.0384,0.0394,0.0375,0.0343,0.0294,0.0186,0.0144,0.008,0.0078,-0.0074,0.0003,-0.014,-0.0212,-0.022,-0.0153,0,0,0,0,0,0,0.0153,0.0182,0.0199,0.0234,0.0256,0.0312,0.0343,0.0355,0.0342,0.0338,0.0282,0.0273,0.0173,0.0207,0.007,0.0055,-0.0044,-0.0037,-0.0038,-0.0208,-0.0215,-0.0221,-0.0155,0,0,0,0,0]}]]